Location: Unspecified
(50.7693°N, 0.0000°E)
Time: 21:52:09
(UTC+00:00)

Vanguard 1 Rocket - Pass Details

Date: 22 June 2019
Orbit: 651 x 4225 km, 34.3° (Epoch: 19 July)

Event Time Altitude Azimuth Distance (km) Brightness Sun altitude
Rises 19:59:16 0° 255° (WSW) 6,301 12.3 1.4°
Reaches altitude 10° 20:04:56 10° 246° (WSW) 4,613 11.4 0.7°
Maximum altitude 20:13:36 25° 197° (SSW) 2,510 9.5 -0.4°
Drops below altitude 10° 20:19:07 10° 143° (SE) 2,827 9.3 -1.1°
Enters shadow 20:21:15 - 131° (SE) 3,369 9.6 -1.3°
Sets 20:21:40 0° 129° (SE) 3,494 - -1.4°
